QPF
0.12 0.17 0.27 0.37 0.32 0.35 0.48 0.52 0.47 0.48 0.50 0.48 0.40 0.31 0.26 0.21 0.18 0.14 0.11 0.07 0.05 0.03 0.03 0.02 0.01 0.01 0.01 0.01 0.01 0.01 0.01 0.01 0.01 0.01 0.01 0.01 0.00 0.00 0.00 0.00 0.00 0.00 0.00
0.11 0.13 0.18 0.28 0.33 0.35 0.42 0.50 0.45 0.42 0.40 0.39 0.36 0.34 0.32 0.24 0.22 0.20 0.13 0.08 0.05 0.04 0.03 0.03 0.03 0.03 0.02 0.02 0.01 0.01 0.01 0.01 0.02 0.02 0.02 0.01 0.01 0.01 0.01 0.01 0.01 0.01 0.01
0.08 0.09 0.13 0.21 0.29 0.34 0.38 0.43 0.45 0.41 0.40 0.38 0.34 0.31 0.33 0.29 0.23 0.23 0.18 0.10 0.07 0.05 0.04 0.04 0.05 0.05 0.05 0.04 0.03 0.03 0.03 0.03 0.03 0.03 0.03 0.03 0.03 0.03 0.02 0.02 0.01 0.01 0.00
0.07 0.07 0.08 0.14 0.21 0.28 0.36 0.40 0.41 0.37 0.35 0.36 0.36 0.33 0.29 0.29 0.22 0.19 0.20 0.17 0.13 0.09 0.07 0.06 0.07 0.07 0.06 0.05 0.05 0.05 0.05 0.05 0.05 0.05 0.05 0.05 0.05 0.04 0.03 0.02 0.02 0.01 0.01
0.06 0.05 0.07 0.10 0.15 0.19 0.28 0.34 0.36 0.35 0.31 0.29 0.29 0.30 0.29 0.29 0.28 0.21 0.18 0.16 0.13 0.11 0.09 0.08 0.07 0.07 0.07 0.07 0.07 0.07 0.07 0.08 0.08 0.09 0.09 0.09 0.08 0.07 0.06 0.05 0.04 0.03 0.01
0.05 0.04 0.05 0.09 0.12 0.14 0.21 0.26 0.28 0.30 0.27 0.25 0.26 0.26 0.26 0.27 0.27 0.24 0.19 0.16 0.14 0.11 0.09 0.08 0.08 0.08 0.09 0.09 0.09 0.08 0.09 0.11 0.11 0.11 0.11 0.10 0.10 0.09 0.08 0.07 0.05 0.04 0.02
0.04 0.04 0.04 0.05 0.09 0.11 0.16 0.19 0.18 0.19 0.20 0.21 0.23 0.22 0.23 0.25 0.24 0.20 0.17 0.14 0.14 0.12 0.10 0.09 0.08 0.09 0.10 0.12 0.12 0.11 0.10 0.11 0.12 0.13 0.14 0.12 0.10 0.08 0.06 0.05 0.04 0.03 0.02
0.05 0.04 0.03 0.03 0.07 0.09 0.13 0.16 0.16 0.13 0.11 0.12 0.14 0.17 0.19 0.22 0.20 0.20 0.17 0.15 0.13 0.11 0.10 0.11 0.09 0.08 0.10 0.12 0.12 0.11 0.11 0.11 0.11 0.11 0.10 0.08 0.08 0.07 0.05 0.04 0.04 0.04 0.04
0.04 0.04 0.03 0.03 0.06 0.08 0.10 0.13 0.16 0.13 0.10 0.10 0.11 0.11 0.12 0.13 0.15 0.16 0.18 0.16 0.13 0.12 0.10 0.10 0.09 0.09 0.08 0.08 0.07 0.07 0.07 0.08 0.07 0.07 0.07 0.06 0.06 0.06 0.05 0.05 0.05 0.05 0.04
0.04 0.04 0.04 0.04 0.07 0.09 0.09 0.10 0.12 0.12 0.09 0.09 0.11 0.10 0.10 0.10 0.11 0.13 0.16 0.15 0.14 0.13 0.12 0.11 0.09 0.09 0.08 0.08 0.07 0.06 0.07 0.07 0.07 0.06 0.05 0.04 0.04 0.05 0.06 0.06 0.06 0.05 0.05
0.04 0.04 0.03 0.04 0.06 0.07 0.09 0.11 0.10 0.09 0.09 0.08 0.10 0.12 0.10 0.11 0.11 0.12 0.14 0.16 0.15 0.13 0.12 0.12 0.10 0.09 0.08 0.07 0.07 0.07 0.07 0.07 0.07 0.06 0.05 0.05 0.04 0.04 0.05 0.05 0.05 0.05 0.04
0.02 0.02 0.02 0.02 0.03 0.04 0.06 0.10 0.08 0.07 0.07 0.06 0.07 0.09 0.10 0.10 0.10 0.12 0.13 0.16 0.18 0.16 0.14 0.14 0.12 0.10 0.09 0.09 0.08 0.08 0.08 0.08 0.08 0.07 0.06 0.05 0.05 0.04 0.04 0.04 0.05 0.05 0.05
0.02 0.02 0.02 0.02 0.02 0.03 0.04 0.05 0.06 0.06 0.05 0.05 0.05 0.05 0.06 0.07 0.08 0.10 0.12 0.13 0.16 0.16 0.14 0.14 0.14 0.12 0.10 0.10 0.09 0.09 0.08 0.08 0.07 0.06 0.04 0.03 0.03 0.03 0.03 0.03 0.03 0.03 0.03
0.02 0.02 0.03 0.03 0.03 0.02 0.02 0.02 0.04 0.05 0.04 0.04 0.04 0.05 0.05 0.05 0.06 0.07 0.09 0.10 0.11 0.14 0.13 0.11 0.13 0.13 0.10 0.07 0.07 0.07 0.06 0.06 0.06 0.05 0.04 0.04 0.03 0.03 0.02 0.02 0.02 0.02 0.02
0.02 0.02 0.02 0.03 0.03 0.03 0.02 0.01 0.02 0.03 0.03 0.03 0.04 0.07 0.07 0.08 0.07 0.07 0.08 0.09 0.09 0.11 0.12 0.11 0.11 0.11 0.10 0.08 0.06 0.06 0.05 0.04 0.04 0.03 0.03 0.04 0.04 0.05 0.04 0.03 0.02 0.02 0.02
0.02 0.02 0.02 0.02 0.03 0.03 0.03 0.02 0.02 0.02 0.02 0.02 0.03 0.05 0.06 0.08 0.09 0.08 0.07 0.07 0.07 0.08 0.11 0.11 0.11 0.11 0.10 0.09 0.08 0.07 0.06 0.05 0.04 0.03 0.03 0.03 0.03 0.04 0.04 0.04 0.03 0.02 0.02
0.02 0.02 0.02 0.02 0.02 0.02 0.03 0.03 0.02 0.02 0.02 0.02 0.02 0.02 0.04 0.06 0.07 0.08 0.08 0.07 0.06 0.07 0.09 0.10 0.10 0.11 0.11 0.11 0.10 0.08 0.07 0.06 0.05 0.04 0.04 0.03 0.03 0.03 0.03 0.03 0.03 0.02 0.01
0.02 0.02 0.02 0.01 0.01 0.02 0.02 0.03 0.02 0.02 0.02 0.02 0.02 0.02 0.03 0.03 0.05 0.05 0.06 0.07 0.05 0.05 0.06 0.07 0.07 0.09 0.12 0.14 0.12 0.11 0.08 0.07 0.06 0.06 0.06 0.05 0.04 0.04 0.03 0.02 0.02 0.02 0.01
0.02 0.01 0.01 0.01 0.01 0.01 0.02 0.02 0.02 0.02 0.02 0.02 0.03 0.03 0.03 0.03 0.04 0.04 0.04 0.05 0.06 0.06 0.06 0.07 0.08 0.07 0.09 0.12 0.13 0.12 0.10 0.08 0.07 0.06 0.06 0.05 0.04 0.04 0.03 0.02 0.02 0.01 0.01
0.02 0.01 0.01 0.01 0.01 0.01 0.01 0.02 0.02 0.03 0.03 0.02 0.02 0.02 0.02 0.03 0.03 0.04 0.04 0.06 0.08 0.08 0.07 0.07 0.07 0.07 0.08 0.10 0.10 0.09 0.09 0.08 0.07 0.06 0.05 0.05 0.03 0.03 0.03 0.02 0.01 0.01 0.00
0.02 0.03 0.02 0.02 0.01 0.01 0.01 0.02 0.02 0.02 0.03 0.02 0.03 0.03 0.03 0.03 0.04 0.04 0.04 0.05 0.06 0.07 0.06 0.06 0.05 0.06 0.08 0.09 0.08 0.07 0.05 0.05 0.04 0.05 0.04 0.03 0.03 0.03 0.02 0.01 0.01 0.01 0.00
0.01 0.02 0.03 0.02 0.02 0.02 0.03 0.02 0.02 0.02 0.02 0.02 0.03 0.03 0.03 0.03 0.04 0.05 0.05 0.05 0.05 0.07 0.06 0.05 0.05 0.06 0.07 0.07 0.06 0.06 0.05 0.04 0.04 0.04 0.03 0.03 0.03 0.02 0.02 0.01 0.01 0.00 0.00
0.00 0.01 0.02 0.02 0.02 0.03 0.03 0.03 0.03 0.03 0.03 0.02 0.02 0.03 0.03 0.03 0.03 0.03 0.04 0.04 0.04 0.05 0.07 0.05 0.04 0.04 0.05 0.06 0.06 0.06 0.05 0.05 0.04 0.03 0.03 0.03 0.03 0.03 0.02 0.01 0.01 0.01 0.00
0.00 0.01 0.01 0.02 0.02 0.02 0.03 0.04 0.04 0.04 0.03 0.02 0.02 0.03 0.04 0.05 0.04 0.03 0.02 0.03 0.04 0.04 0.05 0.05 0.04 0.03 0.03 0.03 0.04 0.04 0.04 0.05 0.04 0.04 0.04 0.04 0.04 0.03 0.02 0.01 0.01 0.00 0.00
0.01 0.01 0.01 0.01 0.01 0.01 0.02 0.04 0.05 0.06 0.04 0.03 0.03 0.03 0.04 0.06 0.05 0.04 0.03 0.04 0.04 0.05 0.06 0.05 0.04 0.04 0.04 0.03 0.04 0.05 0.05 0.05 0.05 0.05 0.04 0.04 0.03 0.02 0.02 0.01 0.01 0.01 0.00
0.01 0.01 0.01 0.01 0.01 0.01 0.01 0.02 0.04 0.06 0.06 0.04 0.04 0.04 0.04 0.04 0.06 0.05 0.04 0.05 0.07 0.09 0.09 0.09 0.07 0.06 0.05 0.05 0.06 0.06 0.06 0.07 0.07 0.07 0.06 0.05 0.04 0.03 0.02 0.01 0.01 0.01 0.00
MSLP
1003.98 1004.01 1004.01 1003.98 1003.95 1003.95 1004.02 1004.20 1004.52 1005.00 1005.62 1006.36 1007.20 1008.07 1008.94 1009.79 1010.58 1011.32 1012.00 1012.65 1013.28 1013.92 1014.56 1015.21 1015.87 1016.52 1017.16 1017.76 1018.31 1018.82 1019.27 1019.66 1019.99 1020.26 1020.47 1020.62 1020.71 1020.76 1020.78 1020.78 1020.80 1020.84 1020.93
1003.67 1003.70 1003.69 1003.66 1003.63 1003.65 1003.74 1003.96 1004.34 1004.87 1005.54 1006.34 1007.20 1008.09 1008.98 1009.82 1010.59 1011.30 1011.96 1012.58 1013.19 1013.79 1014.41 1015.03 1015.67 1016.29 1016.91 1017.50 1018.07 1018.59 1019.08 1019.53 1019.92 1020.25 1020.52 1020.72 1020.84 1020.91 1020.93 1020.93 1020.94 1020.97 1021.05
1003.43 1003.47 1003.48 1003.47 1003.47 1003.51 1003.65 1003.92 1004.34 1004.92 1005.64 1006.46 1007.33 1008.22 1009.08 1009.88 1010.62 1011.29 1011.92 1012.52 1013.10 1013.68 1014.27 1014.87 1015.47 1016.07 1016.66 1017.23 1017.78 1018.31 1018.82 1019.30 1019.74 1020.14 1020.47 1020.72 1020.90 1021.00 1021.05 1021.07 1021.09 1021.13 1021.22
1003.34 1003.40 1003.43 1003.46 1003.49 1003.59 1003.77 1004.09 1004.56 1005.17 1005.90 1006.72 1007.57 1008.42 1009.23 1009.99 1010.67 1011.31 1011.90 1012.47 1013.03 1013.60 1014.18 1014.76 1015.34 1015.90 1016.45 1016.99 1017.51 1018.03 1018.54 1019.03 1019.51 1019.95 1020.34 1020.65 1020.88 1021.03 1021.12 1021.17 1021.22 1021.29 1021.40
1003.44 1003.53 1003.59 1003.65 1003.73 1003.86 1004.10 1004.45 1004.94 1005.56 1006.28 1007.07 1007.87 1008.66 1009.41 1010.10 1010.74 1011.33 1011.90 1012.46 1013.01 1013.58 1014.15 1014.72 1015.27 1015.81 1016.32 1016.81 1017.29 1017.78 1018.27 1018.77 1019.27 1019.73 1020.16 1020.52 1020.80 1021.00 1021.14 1021.23 1021.32 1021.42 1021.56
1003.79 1003.89 1003.97 1004.05 1004.15 1004.32 1004.57 1004.93 1005.42 1006.02 1006.70 1007.42 1008.17 1008.89 1009.57 1010.20 1010.78 1011.34 1011.90 1012.45 1013.02 1013.59 1014.17 1014.73 1015.27 1015.77 1016.24 1016.69 1017.14 1017.58 1018.05 1018.53 1019.03 1019.52 1019.97 1020.36 1020.68 1020.93 1021.11 1021.24 1021.36 1021.50 1021.67
1004.40 1004.47 1004.54 1004.62 1004.72 1004.88 1005.12 1005.46 1005.91 1006.46 1007.08 1007.73 1008.39 1009.03 1009.65 1010.22 1010.78 1011.32 1011.87 1012.43 1013.02 1013.61 1014.20 1014.76 1015.28 1015.76 1016.19 1016.60 1017.00 1017.41 1017.85 1018.32 1018.82 1019.31 1019.78 1020.20 1020.55 1020.83 1021.04 1021.21 1021.37 1021.53 1021.73
1005.22 1005.25 1005.28 1005.31 1005.38 1005.49 1005.69 1005.97 1006.36 1006.83 1007.36 1007.93 1008.51 1009.07 1009.62 1010.16 1010.69 1011.23 1011.79 1012.37 1012.97 1013.58 1014.17 1014.73 1015.24 1015.69 1016.10 1016.47 1016.84 1017.23 1017.65 1018.11 1018.60 1019.10 1019.58 1020.03 1020.41 1020.71 1020.96 1021.16 1021.34 1021.53 1021.76
1006.20 1006.17 1006.12 1006.09 1006.08 1006.12 1006.24 1006.44 1006.74 1007.11 1007.54 1008.02 1008.52 1009.02 1009.52 1010.02 1010.53 1011.07 1011.64 1012.23 1012.84 1013.46 1014.05 1014.59 1015.08 1015.51 1015.90 1016.25 1016.60 1016.98 1017.40 1017.86 1018.36 1018.88 1019.39 1019.85 1020.26 1020.60 1020.87 1021.09 1021.30 1021.52 1021.77
1007.30 1007.18 1007.05 1006.92 1006.82 1006.77 1006.79 1006.89 1007.08 1007.35 1007.68 1008.07 1008.48 1008.91 1009.37 1009.84 1010.34 1010.88 1011.44 1012.03 1012.64 1013.24 1013.81 1014.33 1014.79 1015.20 1015.56 1015.90 1016.26 1016.64 1017.08 1017.57 1018.10 1018.66 1019.20 1019.70 1020.14 1020.51 1020.81 1021.07 1021.30 1021.54 1021.81
1008.46 1008.25 1008.03 1007.81 1007.61 1007.47 1007.39 1007.39 1007.47 1007.63 1007.86 1008.15 1008.48 1008.86 1009.27 1009.71 1010.18 1010.70 1011.24 1011.82 1012.39 1012.95 1013.47 1013.95 1014.38 1014.76 1015.10 1015.45 1015.82 1016.23 1016.71 1017.25 1017.84 1018.44 1019.03 1019.58 1020.07 1020.47 1020.81 1021.09 1021.35 1021.62 1021.90
1009.65 1009.36 1009.06 1008.76 1008.49 1008.26 1008.09 1008.00 1007.98 1008.04 1008.18 1008.38 1008.63 1008.94 1009.29 1009.69 1010.13 1010.61 1011.11 1011.64 1012.16 1012.66 1013.12 1013.55 1013.93 1014.28 1014.61 1014.97 1015.37 1015.83 1016.36 1016.96 1017.61 1018.28 1018.93 1019.53 1020.07 1020.51 1020.89 1021.20 1021.48 1021.77 1022.06
1010.82 1010.49 1010.14 1009.80 1009.48 1009.19 1008.96 1008.79 1008.69 1008.66 1008.71 1008.82 1008.99 1009.22 1009.51 1009.85 1010.24 1010.66 1011.11 1011.57 1012.02 1012.45 1012.84 1013.20 1013.54 1013.86 1014.19 1014.56 1015.00 1015.51 1016.10 1016.77 1017.48 1018.21 1018.92 1019.57 1020.15 1020.64 1021.05 1021.39 1021.69 1021.98 1022.29
1011.97 1011.63 1011.27 1010.91 1010.57 1010.26 1009.99 1009.76 1009.59 1009.49 1009.45 1009.47 1009.56 1009.72 1009.94 1010.21 1010.53 1010.89 1011.27 1011.65 1012.03 1012.39 1012.71 1013.02 1013.31 1013.61 1013.94 1014.33 1014.80 1015.35 1016.00 1016.72 1017.49 1018.27 1019.02 1019.72 1020.33 1020.85 1021.29 1021.65 1021.97 1022.26 1022.56
1013.08 1012.75 1012.41 1012.07 1011.74 1011.42 1011.13 1010.87 1010.65 1010.47 1010.35 1010.30 1010.31 1010.38 1010.53 1010.73 1010.99 1011.28 1011.59 1011.91 1012.22 1012.52 1012.79 1013.05 1013.31 1013.60 1013.93 1014.34 1014.83 1015.42 1016.10 1016.86 1017.66 1018.46 1019.24 1019.96 1020.59 1021.13 1021.57 1021.95 1022.27 1022.57 1022.85
1014.10 1013.81 1013.52 1013.21 1012.91 1012.60 1012.30 1012.01 1011.74 1011.51 1011.32 1011.18 1011.12 1011.12 1011.20 1011.34 1011.54 1011.78 1012.05 1012.32 1012.58 1012.83 1013.07 1013.30 1013.55 1013.84 1014.17 1014.59 1015.10 1015.70 1016.40 1017.16 1017.96 1018.77 1019.54 1020.25 1020.88 1021.42 1021.86 1022.24 1022.56 1022.85 1023.13
1015.02 1014.78 1014.52 1014.26 1013.98 1013.69 1013.38 1013.06 1012.75 1012.46 1012.21 1012.01 1011.88 1011.83 1011.85 1011.96 1012.12 1012.33 1012.56 1012.81 1013.05 1013.29 1013.52 1013.75 1014.00 1014.28 1014.62 1015.05 1015.55 1016.15 1016.83 1017.57 1018.34 1019.12 1019.86 1020.55 1021.16 1021.68 1022.12 1022.49 1022.81 1023.09 1023.35
1015.80 1015.60 1015.38 1015.14 1014.88 1014.58 1014.26 1013.91 1013.56 1013.22 1012.92 1012.67 1012.49 1012.40 1012.40 1012.47 1012.62 1012.83 1013.06 1013.31 1013.57 1013.81 1014.05 1014.29 1014.55 1014.85 1015.20 1015.61 1016.11 1016.68 1017.33 1018.02 1018.74 1019.46 1020.16 1020.80 1021.37 1021.88 1022.30 1022.67 1022.98 1023.27 1023.52
1016.44 1016.26 1016.05 1015.82 1015.55 1015.23 1014.88 1014.50 1014.11 1013.73 1013.39 1013.10 1012.90 1012.79 1012.78 1012.86 1013.02 1013.23 1013.49 1013.76 1014.04 1014.31 1014.57 1014.84 1015.11 1015.42 1015.77 1016.18 1016.65 1017.19 1017.79 1018.42 1019.09 1019.74 1020.38 1020.97 1021.51 1021.98 1022.40 1022.77 1023.09 1023.37 1023.62
1016.95 1016.76 1016.54 1016.29 1015.99 1015.64 1015.25 1014.83 1014.40 1013.98 1013.61 1013.32 1013.11 1013.01 1013.00 1013.10 1013.28 1013.53 1013.81 1014.12 1014.42 1014.72 1015.01 1015.30 1015.60 1015.91 1016.26 1016.66 1017.11 1017.61 1018.16 1018.74 1019.34 1019.93 1020.51 1021.06 1021.56 1022.02 1022.43 1022.80 1023.12 1023.42 1023.68
1017.34 1017.13 1016.88 1016.59 1016.24 1015.84 1015.40 1014.94 1014.48 1014.05 1013.67 1013.37 1013.18 1013.09 1013.11 1013.24 1013.45 1013.72 1014.03 1014.36 1014.69 1015.01 1015.33 1015.63 1015.94 1016.26 1016.61 1016.99 1017.42 1017.89 1018.40 1018.94 1019.48 1020.03 1020.57 1021.08 1021.57 1022.01 1022.42 1022.79 1023.12 1023.43 1023.70
1017.66 1017.41 1017.11 1016.76 1016.36 1015.91 1015.43 1014.94 1014.46 1014.02 1013.64 1013.36 1013.18 1013.11 1013.16 1013.32 1013.54 1013.84 1014.16 1014.50 1014.84 1015.17 1015.49 1015.80 1016.11 1016.44 1016.79 1017.17 1017.59 1018.04 1018.53 1019.04 1019.55 1020.08 1020.59 1021.08 1021.54 1021.98 1022.38 1022.76 1023.10 1023.42 1023.70
1017.93 1017.64 1017.28 1016.88 1016.43 1015.94 1015.43 1014.91 1014.42 1013.98 1013.62 1013.35 1013.20 1013.15 1013.22 1013.38 1013.61 1013.91 1014.22 1014.55 1014.88 1015.20 1015.51 1015.82 1016.13 1016.46 1016.82 1017.20 1017.62 1018.08 1018.56 1019.06 1019.57 1020.08 1020.58 1021.06 1021.51 1021.94 1022.34 1022.72 1023.06 1023.38 1023.66
1018.17 1017.84 1017.45 1017.00 1016.51 1015.99 1015.46 1014.93 1014.44 1014.01 1013.66 1013.41 1013.27 1013.24 1013.30 1013.46 1013.68 1013.94 1014.23 1014.53 1014.83 1015.12 1015.41 1015.71 1016.01 1016.35 1016.71 1017.11 1017.55 1018.03 1018.52 1019.03 1019.55 1020.06 1020.55 1021.03 1021.47 1021.90 1022.28 1022.65 1022.98 1023.28 1023.56
1018.40 1018.04 1017.62 1017.15 1016.64 1016.10 1015.57 1015.04 1014.56 1014.14 1013.80 1013.56 1013.42 1013.38 1013.43 1013.55 1013.73 1013.95 1014.19 1014.44 1014.69 1014.95 1015.21 1015.49 1015.79 1016.13 1016.51 1016.93 1017.40 1017.90 1018.41 1018.95 1019.48 1020.00 1020.49 1020.96 1021.40 1021.80 1022.17 1022.50 1022.81 1023.10 1023.35
1018.62 1018.26 1017.83 1017.35 1016.83 1016.30 1015.76 1015.25 1014.77 1014.36 1014.03 1013.78 1013.63 1013.57 1013.58 1013.65 1013.77 1013.93 1014.10 1014.29 1014.48 1014.70 1014.93 1015.19 1015.49 1015.84 1016.23 1016.68 1017.17 1017.69 1018.24 1018.79 1019.34 1019.86 1020.35 1020.81 1021.23 1021.60 1021.94 1022.24 1022.52 1022.78 1023.02
Thickness
5599 5603 5607 5611 5615 5619 5625 5632 5637 5640 5644 5647 5650 5652 5657 5662 5666 5669 5671 5673 5674 5675 5675 5675 5675 5675 5672 5670 5669 5667 5665 5664 5664 5660 5657 5658 5659 5659 5658 5656 5655 5653 5652
5593 5596 5601 5606 5610 5614 5620 5625 5631 5635 5639 5643 5646 5649 5652 5657 5661 5662 5664 5666 5668 5669 5670 5670 5670 5669 5667 5665 5664 5662 5659 5658 5658 5654 5649 5646 5647 5650 5652 5650 5648 5646 5645
5586 5590 5595 5601 5605 5609 5615 5620 5625 5628 5634 5638 5641 5642 5644 5648 5650 5654 5657 5660 5663 5664 5665 5665 5664 5664 5662 5660 5659 5658 5655 5652 5652 5651 5647 5642 5640 5642 5642 5642 5641 5640 5638
5583 5587 5591 5595 5599 5604 5610 5615 5619 5623 5628 5631 5634 5636 5637 5641 5646 5650 5652 5654 5656 5658 5659 5659 5659 5658 5657 5656 5655 5654 5651 5648 5646 5645 5645 5644 5642 5637 5633 5633 5634 5633 5631
5581 5585 5588 5592 5596 5599 5603 5608 5613 5617 5621 5625 5628 5631 5633 5636 5640 5643 5645 5646 5649 5651 5653 5653 5653 5652 5651 5650 5649 5648 5647 5645 5642 5640 5639 5637 5636 5634 5629 5626 5624 5623 5623
5576 5579 5583 5587 5590 5593 5596 5601 5606 5610 5614 5618 5622 5625 5627 5630 5633 5636 5638 5640 5641 5644 5645 5646 5646 5646 5645 5644 5643 5643 5642 5640 5638 5637 5635 5632 5630 5627 5625 5622 5619 5616 5615
5569 5572 5576 5580 5584 5587 5591 5595 5599 5602 5607 5611 5615 5619 5622 5624 5628 5631 5633 5634 5635 5637 5639 5639 5638 5639 5638 5637 5637 5637 5636 5635 5633 5632 5630 5628 5627 5625 5622 5618 5614 5611 5608
5563 5567 5570 5573 5578 5582 5586 5589 5593 5598 5602 5604 5608 5612 5615 5616 5621 5624 5627 5630 5631 5633 5634 5633 5632 5632 5631 5630 5629 5628 5628 5628 5627 5625 5623 5621 5620 5618 5616 5613 5608 5603 5600
5556 5559 5563 5567 5571 5575 5580 5583 5587 5592 5595 5598 5602 5606 5607 5610 5614 5617 5620 5622 5624 5626 5626 5626 5625 5624 5623 5622 5622 5620 5620 5620 5619 5617 5615 5613 5611 5610 5608 5606 5602 5597 5593
5548 5551 5554 5558 5562 5567 5572 5576 5580 5585 5589 5592 5595 5598 5601 5604 5607 5609 5611 5614 5616 5618 5618 5618 5617 5616 5615 5613 5612 5612 5611 5610 5609 5608 5606 5604 5602 5601 5599 5596 5594 5592 5588
5539 5542 5546 5549 5553 5557 5563 5568 5572 5576 5580 5583 5586 5589 5593 5595 5598 5600 5603 5605 5607 5609 5610 5610 5609 5608 5607 5606 5604 5604 5602 5601 5599 5598 5597 5595 5593 5591 5589 5587 5585 5582 5579
5530 5533 5537 5541 5544 5548 5552 5557 5561 5565 5569 5572 5575 5578 5582 5585 5589 5591 5593 5595 5597 5600 5601 5602 5601 5600 5598 5597 5596 5595 5593 5592 5590 5589 5587 5585 5583 5581 5579 5577 5575 5572 5569
5522 5525 5528 5530 5534 5537 5542 5546 5549 5552 5557 5561 5564 5567 5571 5575 5578 5581 5582 5584 5587 5588 5590 5591 5591 5589 5588 5587 5586 5585 5584 5582 5580 5579 5578 5576 5573 5570 5568 5567 5564 5561 5559
5514 5516 5518 5521 5525 5529 5532 5535 5538 5542 5546 5549 5553 5557 5561 5564 5567 5570 5571 5573 5575 5577 5578 5579 5579 5578 5577 5575 5574 5573 5572 5570 5569 5568 5567 5566 5564 5561 5559 5557 5554 5550 5547
5507 5508 5509 5512 5516 5520 5523 5525 5528 5531 5534 5538 5542 5545 5549 5553 5556 5558 5560 5562 5564 5565 5565 5566 5566 5566 5565 5564 5563 5562 5561 5559 5557 5556 5555 5554 5553 5551 5549 5546 5543 5540 5537
5500 5500 5502 5504 5506 5509 5513 5515 5518 5521 5524 5528 5531 5535 5538 5542 5544 5546 5549 5551 5551 5552 5552 5553 5554 5554 5554 5553 5552 5551 5549 5547 5547 5544 5543 5542 5541 5540 5538 5534 5532 5529 5526
5493 5494 5494 5495 5498 5500 5503 5505 5508 5511 5514 5517 5520 5524 5527 5530 5533 5535 5537 5538 5539 5539 5539 5540 5541 5541 5541 5540 5540 5539 5537 5536 5535 5534 5531 5530 5528 5527 5525 5521 5519 5516 5515
5486 5486 5486 5487 5488 5491 5493 5495 5499 5501 5504 5506 5509 5513 5515 5518 5520 5522 5524 5525 5525 5526 5526 5527 5528 5528 5527 5527 5527 5526 5524 5524 5523 5522 5520 5519 5517 5515 5512 5509 5505 5503 5501
5478 5477 5477 5477 5479 5480 5482 5485 5488 5491 5493 5495 5498 5500 5502 5504 5506 5509 5510 5511 5512 5513 5513 5514 5514 5514 5514 5514 5513 5513 5511 5510 5509 5508 5507 5507 5505 5503 5501 5497 5493 5490 5488
5472 5470 5469 5469 5469 5470 5471 5473 5476 5478 5481 5483 5486 5488 5490 5492 5494 5495 5497 5498 5499 5499 5500 5500 5500 5501 5501 5501 5501 5501 5500 5498 5496 5495 5495 5495 5493 5492 5491 5486 5483 5479 5477
5464 5462 5461 5459 5459 5459 5460 5461 5463 5465 5468 5471 5474 5477 5479 5480 5481 5482 5483 5485 5486 5486 5486 5486 5487 5487 5488 5488 5488 5489 5488 5487 5485 5484 5483 5482 5482 5481 5479 5477 5474 5472 5468
5457 5455 5452 5450 5449 5449 5449 5449 5450 5453 5457 5460 5463 5465 5466 5468 5469 5470 5470 5472 5473 5473 5473 5474 5473 5473 5474 5476 5476 5477 5477 5476 5474 5472 5472 5471 5470 5469 5467 5465 5463 5461 5458
5450 5446 5443 5441 5439 5437 5437 5437 5438 5442 5445 5448 5451 5453 5454 5455 5456 5457 5458 5459 5460 5461 5461 5460 5460 5460 5461 5462 5464 5464 5464 5463 5462 5461 5461 5460 5459 5457 5455 5454 5452 5450 5446
5442 5439 5435 5432 5428 5426 5425 5426 5427 5430 5433 5435 5438 5440 5441 5442 5443 5445 5446 5447 5448 5449 5449 5448 5448 5449 5449 5449 5450 5450 5450 5450 5450 5449 5449 5448 5446 5445 5443 5442 5440 5437 5435
5436 5432 5427 5423 5420 5417 5416 5416 5416 5418 5420 5422 5424 5426 5427 5429 5430 5431 5432 5434 5435 5436 5437 5438 5438 5438 5438 5440 5440 5440 5439 5439 5439 5438 5436 5434 5432 5431 5429 5428 5427 5425 5424
5429 5424 5420 5415 5412 5409 5407 5406 5406 5406 5408 5409 5411 5413 5414 5415 5416 5417 5418 5419 5421 5423 5425 5426 5427 5428 5429 5430 5430 5430 5430 5429 5429 5427 5425 5424 5423 5422 5421 5419 5418 5416 5414